World > North America > United States > Utah > Pinto  

Pinto, UT Hourly Weather Updates

Feedback E-mail the Weather

Quick Clicks

Pinto, UT Weather Maps

°F °C°F °C
Pinto Weather Map
UTC Time: 6/18/2024, 22:22
Your Time:

Pinto, UT Regional Weather

Expires:202406182200;;254907
ASUS45 KSLC 182110
RWRUT 

UTAH REGIONAL WEATHER ROUNDUP
NATIONAL WEATHER SERVICE SALT LAKE CITY UT
300 PM MDT TUE JUN 18 2024


UTZ121>131-182200-

SOUTHERN UTAH
  
CITY           SKY/WX    TMP DP  RH WIND       PRES   REMARKS
BRYCE CANYON   MOSUNNY   66  21  18 SE14      30.05F                  
CEDAR CITY     SUNNY     71  18  13 NW9       29.97F                  
MILFORD        SUNNY     69  29  22 N15G23    29.98F                  
ST GEORGE      MOSUNNY   81  12   7 VRB3      29.83F                  
HANKSVILLE     SUNNY     75   9   7 NE5       29.95F                  
KANAB          CLEAR     81  18   9 SE9G15    29.93F                  
BLANDING       SUNNY     79  19  11 SW9       29.96S                  

$$

REGIONAL REPORTS     COLORADO/ARIZONA
  
CITY           SKY/WX    TMP DP  RH WIND       PRES   REMARKS
CRAIG, CO      SUNNY     64  25  22 W10G16    30.06F                  
GRAND JUNCTION SUNNY     76  15  10 W9G23     29.93F                  
RIFLE, CO      SUNNY     76  21  12 W14G28    29.94F                  
MONTROSE, CO   SUNNY     73  26  17 N8G22     29.96F                  
CORTEZ, CO     SUNNY     82  27  13 SW14G24   29.95S                  
COLORADO CITY  MOSUNNY   84  27  12 W9        29.94F                  
PAGE, AZ       SUNNY     82  17   9 NE8       29.88F                  
GRAND CANYON   SUNNY     79  25  13 SW12G24   29.99F                  
KINGMAN, AZ    SUNNY     86  24  10 VRB3      29.82F                  
FLAGSTAFF, AZ  SUNNY     76  32  20 S14G26    30.04R                  

$$

REGIONAL REPORTS    NEVADA/IDAHO/WYOMING
  
CITY           SKY/WX    TMP DP  RH WIND       PRES   REMARKS
LAS VEGAS, NV  MOSUNNY   85  19   9 NE9       29.81F                  
ELY, NV        SUNNY     64   6  10 CALM      29.99F                  
ELKO, NV       SUNNY     65   8  10 CALM      30.00S                  
POCATELLO, ID  MOSUNNY   61  29  29 VRB7      30.06S                  
BURLEY, ID     SUNNY     63  28  26 N5        30.03F                  
EVANSTON, WY   SUNNY     59   9  13 S12G24    30.07S                  
ROCK SPRINGS,  SUNNY     58   1  10 NW12G21   30.08R                  
KEMMERER, WY   SUNNY     55   1  11 NW8G16    30.10S                  

$$
  

SKY/WX - Weather  TMP - Temperature  DP - Dew Point  RH - Humidity
WIND - Wind Direction/Speed PRES - Barometric Pressure VSB - Visibility
WCI - Wind Chill Index E13G22 Wind - East Wind 13 mph/Gusts of 22 mph

Trending Headlines

Trending Entertainment Headlines

Pinto Radar Loop

Use the map search tool if you want to place a location marker on the radar map...

Pinto Quick Facts

National Two Day Weather Forecast


E-mail the Pinto Weather Forecast

Voice your opinion or tell us about page issues...